DELTA 1 DEB, 40766

Orbit data source: Space-Track

DELTA 1 DEB, 40766 is space debris in SSO originally from a launch on Thu, 29 Jul 1976 UTC launched from the Air Force Western Test Range (AFWTR). Debris objects in space refer to the collection of defunct objects orbiting the Earth. Examples of debris include non-operational satellites, rocket bodies, and fragments generated from explosions, collisions, or faulty payload assembly.

Loading next visibility...
Identifier
40766, 1976-077GK
Orbit
SSO
Country
Flag of USUS
Related business
Manufacturer
Unknown
Mission
Spacecraft
Bus & Motor
Unknown
Mass
Unknown
Launch date (UTC)
1976-07-29 (49 years ago)
Launch vehicle
Unknown
Launch site
Air Force Western Test Range (AFWTR)
Object type
Payload
Rocket body
Debris
Shape & HBR
Unknown
Radar Cross Section
Small (<0.1 m²)

Expand to show TLE details & history
Last TLE update: 2 days ago

TLE from 2 days ago
0 DELTA 1 DEB
1 40766U 76077GK  25259.20199419 -.00000030  00000-0  12565-3 0  9994
2 40766 102.1489 163.6218 0103109 338.0476 178.6873 12.23233338 87456
Epoch: 2025-09-16T04:50Z
TLE epoch observation values (Epoch: 2025-09-16T04:50:52.298Z)
Latitude
22.70607°
Longitude
-79.34853°
Altitude
1,662.926 km
Speed
7.007 km/s
True Right ascension
23h 15m 03s
True Declination
22° 35' 51"
Sunlit
Object was in full shadow at epoch
Visualization orbit readout
Latitude
Unknown
Longitude
Unknown
Altitude
Unknown
Speed
Unknown
Apparent Right ascension
Unknown
Apparent Declination
Unknown
Sunlit
N/A
Visualization observer readout
Local Sidereal Time
12:24:38
Azimuth
Unknown
Elevation
Unknown
Doppler factor
Unknown
Orbital elements
Apogee altitude
1,658.11 km
Perigee altitude
1,494.079 km
Semi-major axis
7,954.232 km
Eccentricity
0.01031
Inclination
102.1489°
RAAN
163.6218°
Arg. of periapsis
338.0476°
True anomaly
178.71402°
Mean anomaly
178.6873°
Eccentric anomaly
178.7007°
Mean motion
3.05947 °/min
Orbital period
117.67 mins
BSTAR
0.00012565
Loading maneuver chart data...
Computing Atmospheric mass density...
Loading historical data...
Loading historical data...
Loading historical data...
Loading historical data...
Loading historical data...
Loading historical data...
Loading historical data...

Documentation

Showing up to 5 results
|